DW6345 Murcia ES current weather conditions

sailwx.info

Wind from 090 at 8 knots gusting 13

Air temperature 28.9° C
Dewpoint 20.3° C

Last reported at 2014-Aug-30 17:45 UTC.
Time now 2014-Aug-30 18:34 UTC

Location: N 37°60' W 001°06'.
View on Google Maps.

See reports from other nearby stations

  
Tides and Currents Weather Stations Pressure Air Temp Water Temp Dewpoint Dewpoint Depression Visibility Wind Speed Wind Dir Waves Ship Positions
date/time (UTC)wind fromknots sea level pressurealtimeterstation pressurevisibilityair tempwater tempwave heightnotes
2014-Aug-30 17:45 090 8 gusting 13 28.9
2014-Aug-30 17:35 124 7 gusting 13 29.4
2014-Aug-30 17:25 058 6 gusting 13 30.0
2014-Aug-30 17:15 135 6 gusting 13 30.6
2014-Aug-30 17:05 090 5 gusting 12 30.6
2014-Aug-30 16:55 140 6 gusting 13 30.6
2014-Aug-30 16:45 166 6 gusting 13 31.1
2014-Aug-30 16:35 127 4 gusting 12 30.6
2014-Aug-30 16:25 101 6 gusting 12 31.1
2014-Aug-30 16:15 079 6 gusting 14 30.6
2014-Aug-30 16:05 100 6 gusting 13 31.1
2014-Aug-30 15:55 098 7 gusting 15 31.1
2014-Aug-30 15:45 090 6 gusting 13 31.7
2014-Aug-30 15:35 091 6 gusting 13 31.7
2014-Aug-30 15:25 135 6 gusting 13 31.7
2014-Aug-30 15:15 099 5 gusting 13 31.7
2014-Aug-30 15:05 180 6 gusting 12 31.7
2014-Aug-30 14:55 090 7 gusting 13 31.7
2014-Aug-30 14:45 135 6 gusting 13 31.7
2014-Aug-30 14:35 098 6 gusting 12 31.7
2014-Aug-30 14:25 135 7 gusting 13 31.7
2014-Aug-30 14:15 166 4 gusting 13 31.7
2014-Aug-30 14:05 090 6 gusting 13 31.7
2014-Aug-30 13:55 090 5 gusting 13 31.7
2014-Aug-30 13:45 090 7 gusting 13 31.7
2014-Aug-30 13:35 067 5 gusting 13 31.7
2014-Aug-30 13:25 090 6 gusting 12 31.7
2014-Aug-30 13:15 123 6 gusting 13 31.7
2014-Aug-30 13:05 135 6 gusting 13 31.7
2014-Aug-30 12:55 090 6 gusting 12 31.1
2014-Aug-30 12:45 090 6 gusting 12 31.7
2014-Aug-30 12:35 094 6 gusting 13 31.7
2014-Aug-30 12:25 126 6 gusting 11 31.1
2014-Aug-30 12:15 090 6 gusting 11 31.1
2014-Aug-30 12:05 045 2 gusting 8 31.1
2014-Aug-30 11:55 060 4 gusting 7 31.1
2014-Aug-30 11:45 090 4 gusting 10 31.1
2014-Aug-30 11:35 091 5 gusting 10 31.1
2014-Aug-30 11:25 090 6 gusting 10 31.1
2014-Aug-30 11:15 147 1 gusting 7 31.1
2014-Aug-30 11:05 180 5 gusting 7 31.1
2014-Aug-30 10:55 090 2 gusting 6 31.1
2014-Aug-30 10:45 135 3 gusting 6 31.1
2014-Aug-30 10:35 154 1 gusting 5 30.6
2014-Aug-30 10:25 131 1 gusting 5 30.0
2014-Aug-30 10:15 225 2 gusting 5 30.6
2014-Aug-30 10:05 135 2 gusting 4 30.0
2014-Aug-30 09:55 090 1 gusting 5 29.4
2014-Aug-30 09:45 011 1 gusting 4 29.4
2014-Aug-30 09:35 045 1 gusting 5 28.9
2014-Aug-30 09:25 022 1 gusting 5 28.3
2014-Aug-30 09:15 314 2 gusting 5 27.8
2014-Aug-30 09:05 270 1 gusting 5 27.2
2014-Aug-30 08:55 180 1 gusting 5 26.7
2014-Aug-30 08:45 180 1 gusting 5 26.7
2014-Aug-30 08:35 251 1 gusting 5 26.7
2014-Aug-30 08:25 225 1 gusting 5 26.1
2014-Aug-30 08:15 270 0 gusting 4 26.1
2014-Aug-30 08:05 270 1 gusting 4 26.1
2014-Aug-30 07:55 315 1 gusting 5 26.1
2014-Aug-30 07:45 315 1 gusting 4 26.1
2014-Aug-30 07:35 270 0 gusting 2 25.6
2014-Aug-30 07:25 294 0 gusting 5 25.6
2014-Aug-30 07:15 244 2 gusting 5 25.6
2014-Aug-30 07:05 270 2 gusting 5 25.6
2014-Aug-30 06:55 225 2 gusting 5 25.6
2014-Aug-30 06:45 220 1 gusting 2 25.6
2014-Aug-30 06:35 243 0 gusting 2 25.6
2014-Aug-30 06:25 260 25.6
2014-Aug-30 06:15 270 25.6
2014-Aug-30 06:05 270 0 gusting 0 25.6
2014-Aug-30 05:55 270 0 gusting 1 25.6
2014-Aug-30 05:45 281 0 gusting 2 25.6
2014-Aug-30 05:35 315 0 gusting 2 25.6
2014-Aug-30 05:25 276 1 gusting 2 25.6
2014-Aug-30 05:15 270 1 gusting 5 25.6
2014-Aug-30 05:05 270 1 gusting 5 25.6
2014-Aug-30 04:55 270 2 gusting 5 25.6
2014-Aug-30 04:45 225 2 gusting 4 25.6
2014-Aug-30 04:35 293 2 gusting 4 25.6
2014-Aug-30 04:25 270 1 gusting 5 25.6
2014-Aug-30 04:05 202 1 gusting 2 25.6
2014-Aug-30 03:55 270 0 gusting 2 25.6
2014-Aug-30 03:45 218 25.6
2014-Aug-30 03:35 315 25.6
2014-Aug-30 03:25 315 0 gusting 1 25.6
2014-Aug-30 03:15 315 25.6
2014-Aug-30 03:05 090 25.6
2014-Aug-30 02:55 072 25.6
2014-Aug-30 02:45 045 0 gusting 1 25.6
2014-Aug-30 02:25 090 25.6
2014-Aug-30 02:15 090 25.6
2014-Aug-30 02:05 180 25.6
2014-Aug-30 01:55 207 25.6
2014-Aug-30 01:45 135 25.6
2014-Aug-30 01:35 292 25.6
2014-Aug-30 01:25 315 0 gusting 1 25.6
2014-Aug-30 01:15 270 0 gusting 1 25.6
2014-Aug-30 01:05 045 25.6
2014-Aug-30 00:55 045 0 gusting 0 25.6
2014-Aug-30 00:45 060 25.6
2014-Aug-30 00:35 060 0 gusting 2 25.6
2014-Aug-30 00:25 045 25.6
2014-Aug-30 00:15 225 0 gusting 0 25.6
2014-Aug-30 00:05 090 25.6
2014-Aug-29 23:55 045 25.6
2014-Aug-29 23:45 296 25.6
2014-Aug-29 23:35 045 25.6
2014-Aug-29 23:25 041 25.6
2014-Aug-29 23:15 045 25.6
2014-Aug-29 23:05 090 25.6
2014-Aug-29 22:55 058 0 gusting 1 25.6
2014-Aug-29 22:45 135 0 gusting 1 25.6
2014-Aug-29 22:35 101 25.6
2014-Aug-29 22:25 135 25.6
2014-Aug-29 22:14 113 0 gusting 2 25.6
2014-Aug-29 22:05 135 0 gusting 2 25.6
2014-Aug-29 21:55 090 0 gusting 4 25.6
2014-Aug-29 21:45 130 1 gusting 4 25.6
2014-Aug-29 21:35 096 1 gusting 5 25.6
2014-Aug-29 21:25 090 1 gusting 4 26.1
2014-Aug-29 21:15 090 1 gusting 5 26.1
2014-Aug-29 21:05 090 2 gusting 6 26.1
2014-Aug-29 20:55 090 2 gusting 7 26.1
2014-Aug-29 20:45 090 5 gusting 7 26.1
2014-Aug-29 20:35 124 5 gusting 8 26.7
2014-Aug-29 20:25 118 4 gusting 7 26.7
2014-Aug-29 20:15 090 4 gusting 8 26.7
2014-Aug-29 20:05 135 5 gusting 8 26.7
2014-Aug-29 19:55 090 4 gusting 7 26.7
2014-Aug-29 19:45 094 4 gusting 8 27.2
2014-Aug-29 19:35 090 4 gusting 7 27.2
2014-Aug-29 19:25 090 4 gusting 8 27.2
2014-Aug-29 19:15 077 5 gusting 12 27.8
2014-Aug-29 19:05 116 5 gusting 10 27.8
2014-Aug-29 18:55 075 5 gusting 11 27.8
2014-Aug-29 18:45 057 4 gusting 11 28.3
2014-Aug-29 18:35 125 6 gusting 13 28.3
2014-Aug-29 18:25 091 5 gusting 12 28.3
2014-Aug-29 18:15 107 4 gusting 13 28.9
2014-Aug-29 18:05 162 6 gusting 11 29.4
2014-Aug-29 17:55 115 6 gusting 13 29.4
2014-Aug-29 17:25 130 8 gusting 17 30.0
2014-Aug-29 17:15 090 10 gusting 17 30.6
2014-Aug-29 17:05 071 10 gusting 17 30.6
2014-Aug-29 16:55 109 7 gusting 17 30.6
2014-Aug-29 16:45 090 8 gusting 15 30.6
2014-Aug-29 16:35 090 9 gusting 17 31.1
2014-Aug-29 16:25 084 11 gusting 19 30.6
2014-Aug-29 16:15 090 9 gusting 18 31.1
2014-Aug-29 16:05 090 12 gusting 18 31.1
2014-Aug-29 15:55 090 8 gusting 17 31.7
2014-Aug-29 15:45 090 9 gusting 18 31.7
2014-Aug-29 15:35 090 12 gusting 19 31.7
2014-Aug-29 15:25 088 11 gusting 18 31.7
2014-Aug-29 15:15 093 8 gusting 14 31.7
2014-Aug-29 15:05 090 11 gusting 19 31.7
2014-Aug-29 14:55 090 9 gusting 15 32.2
2014-Aug-29 14:45 083 7 gusting 14 32.8
2014-Aug-29 14:35 090 8 gusting 18 32.2
2014-Aug-29 14:25 129 10 gusting 15 32.8
2014-Aug-29 14:15 092 8 gusting 15 32.8
2014-Aug-29 14:05 090 9 gusting 19 32.8
2014-Aug-29 13:55 111 11 gusting 19 32.8
2014-Aug-29 13:45 090 6 gusting 13 33.3
2014-Aug-29 13:35 135 6 gusting 11 33.3
2014-Aug-29 13:25 090 5 gusting 15 32.8
2014-Aug-29 13:15 090 7 gusting 17 33.3
2014-Aug-29 13:05 091 6 gusting 14 33.3
2014-Aug-29 12:55 060 6 gusting 13 33.3
2014-Aug-29 12:45 071 8 gusting 13 32.8
2014-Aug-29 12:35 097 5 gusting 13 32.8
2014-Aug-29 12:25 090 6 gusting 13 32.2
2014-Aug-29 12:15 052 6 gusting 12 32.2
2014-Aug-29 12:05 135 6 gusting 11 32.2
2014-Aug-29 11:55 090 6 gusting 12 32.2
2014-Aug-29 11:45 077 4 gusting 8 31.7
2014-Aug-29 11:35 064 4 gusting 8 31.7
2014-Aug-29 11:25 110 5 gusting 8 31.7
2014-Aug-29 11:15 045 4 gusting 7 31.1
2014-Aug-29 11:05 045 3 gusting 7 31.7
2014-Aug-29 10:55 057 4 gusting 8 31.7
2014-Aug-29 10:45 091 4 gusting 6 31.7
2014-Aug-29 10:35 105 2 gusting 6 31.1
2014-Aug-29 10:25 106 2 gusting 5 31.1
2014-Aug-29 10:15 090 1 gusting 5 30.6
2014-Aug-29 10:05 180 1 gusting 5 30.6
2014-Aug-29 09:55 180 1 gusting 4 30.0
2014-Aug-29 09:45 090 1 gusting 5 29.4
2014-Aug-29 09:35 244 0 gusting 2 29.4
2014-Aug-29 09:25 310 1 gusting 2 28.3
2014-Aug-29 09:15 270 27.8
2014-Aug-29 09:05 135 27.2
2014-Aug-29 08:55 025 0 gusting 2 27.2
2014-Aug-29 08:45 071 0 gusting 2 26.7
2014-Aug-29 08:35 192 0 gusting 2 26.7
2014-Aug-29 08:25 289 0 gusting 4 26.1
2014-Aug-29 08:15 045 0 gusting 5 26.1
2014-Aug-29 08:05 315 2 gusting 5 26.1
2014-Aug-29 07:55 021 1 gusting 5 26.1
2014-Aug-29 07:45 315 2 gusting 4 26.1
2014-Aug-29 07:35 066 26.1
2014-Aug-29 07:25 315 0 gusting 2 25.6
2014-Aug-29 07:15 225 0 gusting 2 25.6
2014-Aug-29 07:05 276 0 gusting 1 25.6
2014-Aug-29 06:55 186 25.0
2014-Aug-29 06:45 069 25.0
2014-Aug-29 06:35 090 25.0
2014-Aug-29 06:25 225 24.4
2014-Aug-29 06:15 090 24.4
2014-Aug-29 06:05 180 0 gusting 1 24.4
2014-Aug-29 05:55 180 0 gusting 2 24.4
2014-Aug-29 05:45 135 0 gusting 1 24.4
2014-Aug-29 05:35 180 0 gusting 2 24.4
2014-Aug-29 05:25 141 0 gusting 2 24.4
2014-Aug-29 05:15 180 1 gusting 2 24.4
2014-Aug-29 05:05 135 25.0
2014-Aug-29 04:55 161 0 gusting 2 24.4
2014-Aug-29 04:45 126 0 gusting 1 24.4
2014-Aug-29 04:35 090 24.4
2014-Aug-29 04:25 139 24.4
2014-Aug-29 04:15 122 24.4
2014-Aug-29 04:05 315 0 gusting 2 24.4
2014-Aug-29 03:55 045 0 gusting 2 24.4
2014-Aug-29 03:45 045 0 gusting 2 24.4
2014-Aug-29 03:35 340 24.4
2014-Aug-29 03:25 045 24.4
2014-Aug-29 03:15 130 24.4
2014-Aug-29 03:05 270 0 gusting 1 23.9
2014-Aug-29 02:55 045 0 gusting 2 23.9
2014-Aug-29 02:45 045 0 gusting 2 24.4
2014-Aug-29 02:35 063 0 gusting 1 24.4
2014-Aug-29 02:25 090 0 gusting 1 24.4
2014-Aug-29 02:15 090 0 gusting 2 24.4
2014-Aug-29 02:05 090 1 gusting 2 24.4
2014-Aug-29 01:55 106 1 gusting 2 24.4
2014-Aug-29 01:45 090 0 gusting 1 24.4
2014-Aug-29 01:35 135 24.4
2014-Aug-29 01:25 090 1 gusting 4 24.4
2014-Aug-29 01:15 135 0 gusting 4 24.4
2014-Aug-29 01:05 090 1 gusting 5 24.4
2014-Aug-29 00:55 090 1 gusting 4 24.4
2014-Aug-29 00:45 090 2 gusting 4 24.4
2014-Aug-29 00:35 090 2 gusting 5 24.4
2014-Aug-29 00:25 135 1 gusting 5 25.0
2014-Aug-29 00:15 135 2 gusting 5 24.4
2014-Aug-29 00:05 090 2 gusting 5 25.0
2014-Aug-28 23:55 050 1 gusting 5 25.0
2014-Aug-28 23:45 091 1 gusting 5 25.0
2014-Aug-28 23:35 124 1 gusting 5 25.0
2014-Aug-28 23:25 072 2 gusting 5 25.0
2014-Aug-28 23:15 067 2 gusting 5 25.0
2014-Aug-28 23:05 090 4 gusting 6 25.6
2014-Aug-28 22:55 073 2 gusting 6 25.6
2014-Aug-28 22:45 090 3 gusting 6 25.6
2014-Aug-28 22:35 090 5 gusting 7 25.6
2014-Aug-28 22:25 121 2 gusting 7 25.6
2014-Aug-28 22:14 060 4 gusting 7 25.6
2014-Aug-28 22:05 045 4 gusting 6 25.6
2014-Aug-28 21:55 090 4 gusting 7 26.1
2014-Aug-28 21:45 092 3 gusting 6 26.1
2014-Aug-28 21:35 090 4 gusting 7 26.1
2014-Aug-28 21:25 094 3 gusting 6 26.1
2014-Aug-28 21:15 090 4 gusting 6 26.1
2014-Aug-28 21:05 090 2 gusting 6 26.7
2014-Aug-28 20:55 090 4 gusting 6 26.7
2014-Aug-28 20:45 125 2 gusting 6 26.7
2014-Aug-28 20:35 090 4 gusting 6 26.7
2014-Aug-28 20:25 090 4 gusting 8 26.7
2014-Aug-28 20:15 066 5 gusting 8 27.2
2014-Aug-28 20:05 090 5 gusting 8 27.2
2014-Aug-28 19:55 090 4 gusting 8 27.2
2014-Aug-28 19:45 085 4 gusting 8 27.2
2014-Aug-28 19:35 090 4 gusting 8 27.8
2014-Aug-28 19:25 070 4 gusting 10 27.8
2014-Aug-28 19:15 090 6 gusting 10 27.8
2014-Aug-28 19:05 090 6 gusting 8 28.3
2014-Aug-28 18:55 090 4 gusting 8 28.3
2014-Aug-28 18:45 084 4 gusting 11 28.9
2014-Aug-28 18:35 089 6 gusting 11 28.9
2014-Aug-28 18:25 075 6 gusting 13 29.4
2014-Aug-28 18:15 090 6 gusting 13 30.0
2014-Aug-28 18:05 064 6 gusting 12 31.1